Showing default

FLOCK 4BE 34, 60495

Orbit data source: Space-Track

FLOCK 4BE 34, 60495 is a payload satellite owned by Planet (US) in SSO that was launched on Fri, 16 Aug 2024 UTC via an FALCON 9 launch vehicle from the Air Force Western Test Range (AFWTR). Payloads include a variety of satellites, spacecraft, and rockets equipped with specific instruments for various scientific and technological missions. These include communications satellites like Starlink; space stations such as the ISS; scientific satellites like the Hubble; Earth observation satellites from companies like Planet Labs, Umbra, and HawkEye 360; GPS; miniature CubeSats for education and research; and military/defense satellites.

Loading next visibility...
FLOCK 4BE 34 details
Identifier
60495, 2024-149AD
Orbit
SSO
Last TLE update23 hours ago
Origin
Flag of USPlanet (US)
ManufacturerPlanet
MissionOperational spacecraft
Bus & MotorCUBESAT 3U, Unknown motor
Mass5.7 kg wet, 5.7 kg dry
Launch date (UTC)
2024-08-16 (4 months ago)
Launch vehicle
FALCON 9
Launch site
Air Force Western Test Range (AFWTR)
Object type
Payload
Rocket body
Debris
Shape & HBRUnknown
Radar Cross SectionMedium (>0.1 m² and <1 m²)

Expand to show TLE details & history

TLE from 23 hours ago
0 FLOCK 4BE 34
1 60495U 24149AD  24336.51932457  .00012907  00000-0  58060-3 0  9999
2 60495  97.4346  50.5249 0006145 103.6314 256.5606 15.21222552 16204
Epoch: 2024-12-01T12:27Z
Definitive object data (Epoch: 2024-12-01T12:27:49.642Z)
Latitude-0.00008°
Longitude152.7117°
Altitude506.228 km
Speed7.61 km/s
True Right ascension03h 22m 05s
True Declination0° 00' 00"
Sunlit
Object was in full shadow at TLE epoch
Visualization TLE readout
Latitude-75.85462°
Longitude-175.33536°
Altitude533.746 km
Speed7.592 km/s
Apparent Right ascension22h 54m 50s
Apparent Declination-67° 59' 32"
Sunlit
Object is in daylight
Visualization observer readout
Local Sidereal Time09:34:53
Azimuth194.789° SSW
Elevation-59.884°
Doppler factor1
Orbital elements
Apogee altitude503.343 km
Perigee altitude494.891 km
Semi-major axis6,877.254 km
Eccentricity0.0006145
Inclination97.4346°
RAAN50.5249°
Arg. of periapsis103.6314°
True anomaly256.49212°
Mean anomaly256.5606°
Eccentric anomaly256.52636°
Mean motion3.80558 °/min
BSTAR0.0005806
Orbital period94.6 mins
Loading maneuver chart data...
Loading historical data...
Loading historical data...
Loading historical data...
Loading historical data...
Loading historical data...
Loading historical data...
Loading historical data...

FLOCK 4BE 34 Visibility forecast

Observer location: undefined°, undefined

Span
Click to sort rows by Start time (UTC) header in descending order
Start Az.
Max El. time (UTC)
Max El. Az.
Max El.
End time (UTC)
End Az.
5 mins2024-12-02 17:27:06.748Z39.08° NE2024-12-02 17:30:06.748Z108.265° ESE26.256°2024-12-02 17:32:06.748Z151.491° SSE
5 mins2024-12-03 05:39:06.748Z208.28° SW2024-12-03 05:41:06.748Z271.922° WNW31.248°2024-12-03 05:44:06.748Z330.264° NNW
|